This is the latest recevied weather packets stored in our database for station/object ANJALA. If no packets are shown the sender has not sent any weather packets the latest 10 day(s).
| Time | Temp. | Humidity | Pressure | Rain* | Wind** | Luminosity | Snow |
|---|---|---|---|---|---|---|---|
| 1777970834 | 12.22° C | 63% | - | 0 mm | - | - | - |
| 1777969634 | 11.67° C | 61% | - | 0 mm | - | - | - |
| 1777968434 | 11.11° C | 63% | - | 0 mm | - | - | - |
| 1777967233 | 11.11° C | 71% | - | 0 mm | - | - | - |
| 1777966034 | 9.44° C | 75% | - | 0 mm | - | - | - |
| 1777964833 | 8.89° C | 79% | - | 0 mm | - | - | - |
| 1777963633 | 8.33° C | 84% | - | 0 mm | - | - | - |
| 1777962433 | 7.22° C | 89% | - | 0 mm | - | - | - |
| 1777961233 | 6.67° C | 93% | - | 0 mm | - | - | - |
| 1777960033 | 6.11° C | 93% | - | 0 mm | - | - | - |
| 1777958833 | 6.67° C | 91% | - | 0 mm | - | - | - |
| 1777957633 | 6.67° C | 91% | - | 0 mm | - | - | - |
| 1777956433 | 6.67° C | 92% | - | 0 mm | - | - | - |
| 1777955233 | 6.67° C | 92% | - | 0 mm | - | - | - |
| 1777954033 | 6.67° C | 93% | - | 0 mm | - | - | - |
| 1777934832 | 7.22° C | 95% | - | 0 mm | - | - | - |
| 1777933632 | 7.22° C | 95% | - | 0 mm | - | - | - |
| 1777932432 | 7.22° C | 96% | - | 0 mm | - | - | - |
| 1777931232 | 7.22° C | 96% | - | 0 mm | - | - | - |
| 1777930032 | 7.78° C | 95% | - | 0 mm | - | - | - |
| 1777928831 | 7.78° C | 95% | - | 0 mm | - | - | - |
| 1777925231 | 8.33° C | 96% | - | 0 mm | - | - | - |
| 1777922831 | 8.89° C | 96% | - | 0 mm | - | - | - |
| 1777920431 | 9.44° C | 91% | - | 0 mm | - | - | - |
| 1777919231 | 9.44° C | 91% | - | 0 mm | - | - | - |
* Rain latest hour (hover to see other rain measurements)
** Current wind speed in m/s (hover to see current wind gust speed)